Miscellaneous Local Product
Issued by NWS North Platte, NE

Home | Current Version | Previous Version | Text Only | Print | Product List | Glossary On
Versions: 1 2 3 4 5 6 7 8 9 10 11 12 13 14 15 16 17 18 19 20 21 22 23 24 25 26 27 28 29 30 31 32 33 34 35 36 37 38 39 40 41 42 43 44 45 46 47 48 49 50
000
AXUS43 KLBF 231910
MISLBF


WESTERN AND NORTH CENTRAL NEBRASKA HOURLY WEATHER ROUNDUP
NATIONAL WEATHER SERVICE NORTH PLATTE NE
200 PM CDT SAT JUL 23 2016

NOTE: "FAIR" INDICATES FEW OR NO CLOUDS BELOW 12,000 FEET WITH NO
SIGNIFICANT WEATHER AND/OR OBSTRUCTIONS TO VISIBILITY.

NOTE: STATIONS NOT REPORTING VARIABLES SUCH AS SKY/WEATHER OR
PRESSURE ARE PROVIDED BY RAWS AND APRS NETWORKS AND ARE NOT UNDER
NATIONAL WEATHER SERVICE QUALITY CONTROL.

...OBSERVATIONS IN AND NEAR THE EASTERN PANHANDLE OF NEBRASKA...

CITY           SKY/WX    TMP DP  RH WIND       PRES   REMARKS
PINE RIDGE     SUNNY     90  51  26 N14G20    29.95R
CHADRON        SUNNY     92  50  23 NW7G20    29.94R
ALLIANCE       SUNNY     90  53  28 N15G24    29.98S
SIDNEY         SUNNY     96  48  19 N15       30.02F HX  92
CRESCENT LAKE    N/A     91  55  29 NW9G18      N/A
$$

...OBSERVATIONS IN NORTHERN NEBRASKA AND FAR SOUTHERN SOUTH DAKOTA...

CITY           SKY/WX    TMP DP  RH WIND       PRES   REMARKS
WINNER         FAIR      97  64  33 W12       29.77R HX  99
VALENTINE      SUNNY     95  60  31 NW16G25   29.83R HX  95
THEDFORD       SUNNY     96  63  33 W15G22    29.87S HX  97
AINSWORTH      SUNNY     92  68  45 W14       29.82S HX  96
O`NEILL        SUNNY     93  67  43 SW15      29.80F HX  96
ORD            SUNNY     89  70  53 SW13      29.81F HX  94
BROKEN BOW     SUNNY     88  72  58 W12       29.86F HX  94
VALENTINE NWR    N/A     93  63  36 NW13G20     N/A  HX  94
BUTTE            N/A     94  69  43 SW12G23     N/A  HX  99
HALSEY           N/A     92  65  40 SW7G18      N/A  HX  94
EWING            N/A     90  75  60 SW7         N/A  HX 100
$$

...OBSERVATIONS IN SOUTHWEST NEBRASKA AND FAR NORTHEAST COLORADO...

CITY           SKY/WX    TMP DP  RH WIND       PRES   REMARKS
WRAY           FAIR      97  54  23 N9G16     29.96F HX  94
HOLYOKE        FAIR      95  57  28 W9        29.97S HX  94
IMPERIAL       SUNNY     89  66  46 VRB7      29.93F HX  91
OGALLALA       SUNNY     92  63  37 W6        29.92S HX  93
NORTH PLATTE   CLOUDY    89  71  55 W8        29.89S HX  95
MCCOOK         CLOUDY    88  67  49 W5        29.88F HX  91
LEXINGTON      SUNNY     89  69  52 SW7       29.87S HX  93
STAPLETON        N/A     90  72  55 CALM        N/A  HX  97
GOTHENBURG       N/A     89  65  45 SW6         N/A  HX  91
CALLAWAY         N/A     85  72  65 W15         N/A  HX  91
$$

...OBSERVATIONS IN CENTRAL LINCOLN COUNTY AREA...

CITY           SKY/WX    TMP DP  RH WIND       PRES   REMARKS
N.P. AIRPORT   CLOUDY    89  71  55 W8        29.89S HX  95
N.P. DOWNTOWN    N/A     90  71  53 CALM        N/A  HX  96
N.P. SOUTHEAST   N/A     90  69  50 MISG        N/A  HX  94
N.P. HILLCREST   N/A     87  70  56 W8G15       N/A  HX  91
$$

...SOME OBSERVATIONS FROM AROUND THE REGION...

CITY           SKY/WX    TMP DP  RH WIND       PRES   REMARKS
DENVER         MOSUNNY   95  38  13 SE5       30.10F HX  90
LARAMIE        SUNNY     86  39  19 SW16G25   30.24F
CHEYENNE       MOSUNNY   91  37  15 W9G22     30.14F
SCOTTSBLUFF    SUNNY     93  50  23 NW14      29.99F HX  90
RAPID CITY     SUNNY     88  45  22 NW24G31   29.95S
BISMARCK       CLOUDY    80  68  66 W18G24    29.79S
PIERRE         SUNNY     94  66  39 NW24      29.74R HX  97
SIOUX FALLS    CLOUDY    89  73  59 S12G17    29.78S HX  97
OMAHA          CLOUDY    89  73  59 S13       29.83S HX  97
GRAND ISLAND   SUNNY     92  68  45 SW17G23   29.84F HX  96
KANSAS CITY    CLOUDY    92  76  59 S15       29.91F HX 104
WICHITA        PTSUNNY  101  63  28 S14       29.88F HX 103
OKLAHOMA CITY  MOSUNNY   99  63  30 S13G24    29.95F HX 101
DALLAS         MOSUNNY   99  68  36 SW12      29.94F HX 104
AMARILLO       SUNNY     97  52  21 S16G24    30.05F HX  94
DODGE CITY     SUNNY     97  56  25 S21G31    29.90F HX  95
HAYS           SUNNY    102  63  27 S20G30    29.83F HX 104
GOODLAND       SUNNY     97  55  24 N12       29.95S HX  95
$$




USA.gov is the U.S. government's official web portal to all federal, state and local government web resources and services.